When you browse on this site, cookies collect data to enhance your experience and personalize the content and advertising you see.
Visit our Privacy Policy to learn more. By continuing to use the site, you agree to this use of cookies and data.
  • En España
  • Lista de países
  • Para 7 días
  • Temperatura del agua
  • El tiempo en el mapa
  • Informadores
  • user-avatar
    Iniciar sesión

    Tiempo cada hora Santa Fe

    Hoy, 27 Enero, Lunes

    Tiempo Temperatura Precipitaciones Viento Presión Humedad
    00:00 +28°C° 0 mm 2 mps 756 mmHg 31%
    01:00 +27°C° 0 mm 4 mps 756 mmHg 33%
    02:00 +26°C° 0 mm 5 mps 757 mmHg 35%
    03:00 +25°C° 0 mm 5 mps 757 mmHg 39%
    04:00 +23°C° 0 mm 4 mps 758 mmHg 43%
    05:00 +22°C° 0 mm 3 mps 758 mmHg 48%
    06:00 +23°C° 0 mm 4 mps 759 mmHg 46%
    07:00 +25°C° 0 mm 4 mps 759 mmHg 43%
    08:00 +26°C° 0 mm 4 mps 760 mmHg 41%
    09:00 +28°C° 0 mm 5 mps 759 mmHg 34%
    10:00 +30°C° 0 mm 5 mps 759 mmHg 27%
    11:00 +34°C° 0 mm 5 mps 759 mmHg 20%
    12:00 +35°C° 0 mm 5 mps 759 mmHg 18%
    13:00 +36°C° 0 mm 5 mps 758 mmHg 16%
    14:00 +37°C° 0 mm 5 mps 758 mmHg 14%
    15:00 +37°C° 0 mm 4 mps 757 mmHg 14%
    16:00 +37°C° 0 mm 4 mps 757 mmHg 14%
    17:00 +36°C° 0 mm 4 mps 756 mmHg 14%
    18:00 +34°C° 0 mm 4 mps 756 mmHg 16%
    19:00 +30°C° 0 mm 3 mps 756 mmHg 18%
    20:00 +28°C° 0 mm 3 mps 756 mmHg 20%
    21:00 +27°C° 0 mm 4 mps 756 mmHg 24%
    22:00 +26°C° 0 mm 4 mps 757 mmHg 28%
    23:00 +25°C° 0 mm 4 mps 757 mmHg 32%

    Mañana, 28 Enero, Martes

    Tiempo Temperatura Precipitaciones Viento Presión Humedad
    00:00 +23°C° 0 mm 4 mps 757 mmHg 37%
    01:00 +22°C° 0 mm 4 mps 757 mmHg 41%
    02:00 +21°C° 0 mm 4 mps 757 mmHg 46%
    03:00 +21°C° 0 mm 4 mps 756 mmHg 48%
    04:00 +20°C° 0 mm 4 mps 756 mmHg 49%
    05:00 +20°C° 0 mm 3 mps 756 mmHg 51%
    06:00 +21°C° 0 mm 3 mps 756 mmHg 50%
    07:00 +22°C° 0 mm 3 mps 756 mmHg 50%
    08:00 +24°C° 0 mm 3 mps 756 mmHg 50%
    09:00 +28°C° 0 mm 3 mps 756 mmHg 42%
    10:00 +31°C° 0 mm 3 mps 756 mmHg 34%
    11:00 +35°C° 0 mm 3 mps 755 mmHg 25%
    12:00 +37°C° 0 mm 3 mps 754 mmHg 23%
    13:00 +38°C° 0 mm 3 mps 753 mmHg 21%
    14:00 +39°C° 0 mm 2 mps 752 mmHg 18%
    15:00 +39°C° 0 mm 3 mps 751 mmHg 19%
    16:00 +39°C° 0 mm 3 mps 751 mmHg 19%
    17:00 +39°C° 0 mm 3 mps 750 mmHg 20%
    18:00 +37°C° 0 mm 3 mps 750 mmHg 23%
    19:00 +34°C° 0 mm 3 mps 750 mmHg 27%
    20:00 +31°C° 0 mm 3 mps 750 mmHg 31%
    21:00 +30°C° 0 mm 3 mps 750 mmHg 31%
    22:00 +30°C° 0 mm 3 mps 751 mmHg 31%
    23:00 +29°C° 0 mm 3 mps 751 mmHg 31%

    Pasado mañana, 29 Enero, Miércoles

    Tiempo Temperatura Precipitaciones Viento Presión Humedad
    00:00 +28°C° 0 mm 3 mps 750 mmHg 34%
    01:00 +27°C° 0 mm 3 mps 750 mmHg 37%
    02:00 +27°C° 0 mm 3 mps 750 mmHg 39%
    03:00 +26°C° 0 mm 3 mps 750 mmHg 43%
    04:00 +25°C° 0 mm 3 mps 751 mmHg 47%
    05:00 +24°C° 0 mm 3 mps 752 mmHg 50%
    06:00 +25°C° 0.2 mm 3 mps 752 mmHg 52%
    07:00 +26°C° 0.2 mm 3 mps 753 mmHg 53%
    08:00 +27°C° 0.2 mm 3 mps 754 mmHg 55%
    09:00 +28°C° 0.2 mm 3 mps 754 mmHg 54%
    10:00 +29°C° 0.2 mm 3 mps 754 mmHg 53%
    11:00 +30°C° 0.2 mm 4 mps 755 mmHg 51%
    12:00 +30°C° 0.1 mm 3 mps 755 mmHg 51%
    13:00 +29°C° 0.1 mm 3 mps 755 mmHg 50%
    14:00 +29°C° 0.1 mm 3 mps 755 mmHg 49%
    15:00 +27°C° 0.4 mm 4 mps 755 mmHg 60%
    16:00 +24°C° 0.4 mm 6 mps 755 mmHg 71%
    17:00 +22°C° 0.4 mm 7 mps 754 mmHg 82%
    18:00 +22°C° 0 mm 6 mps 755 mmHg 83%
    19:00 +21°C° 0 mm 5 mps 755 mmHg 84%
    20:00 +21°C° 0 mm 4 mps 756 mmHg 85%
    21:00 +20°C° 0 mm 3 mps 756 mmHg 87%
    22:00 +20°C° 0 mm 3 mps 757 mmHg 88%
    23:00 +20°C° 0 mm 3 mps 757 mmHg 89%

    30 Enero, Jueves

    Tiempo Temperatura Precipitaciones Viento Presión Humedad
    00:00 +20°C° 0 mm 3 mps 757 mmHg 89%
    01:00 +20°C° 0 mm 3 mps 757 mmHg 90%
    02:00 +20°C° 0 mm 3 mps 757 mmHg 91%
    03:00 +19°C° 0 mm 3 mps 757 mmHg 93%
    04:00 +19°C° 0 mm 3 mps 757 mmHg 94%
    05:00 +18°C° 0 mm 4 mps 757 mmHg 96%
    06:00 +19°C° 0 mm 4 mps 758 mmHg 91%
    07:00 +20°C° 0 mm 4 mps 758 mmHg 86%
    08:00 +21°C° 0 mm 4 mps 758 mmHg 81%
    09:00 +25°C° 0 mm 4 mps 758 mmHg 65%
    10:00 +28°C° 0 mm 4 mps 758 mmHg 48%
    11:00 +32°C° 0 mm 4 mps 758 mmHg 31%
    12:00 +33°C° 0 mm 4 mps 757 mmHg 26%
    13:00 +34°C° 0 mm 4 mps 757 mmHg 21%
    14:00 +35°C° 0 mm 4 mps 756 mmHg 17%
    15:00 +35°C° 0 mm 4 mps 755 mmHg 16%
    16:00 +35°C° 0 mm 4 mps 755 mmHg 15%
    17:00 +35°C° 0 mm 4 mps 754 mmHg 14%
    18:00 +31°C° 0 mm 3 mps 755 mmHg 16%
    19:00 +28°C° 0 mm 3 mps 755 mmHg 18%
    20:00 +26°C° 0 mm 2 mps 755 mmHg 20%
    21:00 +25°C° 0 mm 2 mps 756 mmHg 21%
    22:00 +24°C° 0 mm 2 mps 756 mmHg 23%
    23:00 +22°C° 0 mm 3 mps 757 mmHg 24%

    31 Enero, Viernes

    Tiempo Temperatura Precipitaciones Viento Presión Humedad
    00:00 +21°C° 0 mm 3 mps 757 mmHg 31%
    01:00 +21°C° 0 mm 3 mps 757 mmHg 39%
    02:00 +20°C° 0 mm 3 mps 757 mmHg 46%
    03:00 +19°C° 0 mm 2 mps 757 mmHg 55%
    04:00 +19°C° 0 mm 2 mps 757 mmHg 64%
    05:00 +18°C° 0 mm 2 mps 757 mmHg 73%
    06:00 +21°C° 0 mm 2 mps 757 mmHg 67%
    07:00 +24°C° 0 mm 2 mps 757 mmHg 60%
    08:00 +26°C° 0 mm 2 mps 758 mmHg 53%
    09:00 +29°C° 0 mm 1 mps 758 mmHg 42%
    10:00 +32°C° 0 mm 1 mps 757 mmHg 31%
    11:00 +35°C° 0 mm 1 mps 757 mmHg 21%
    12:00 +36°C° 0 mm 1 mps 756 mmHg 19%
    13:00 +37°C° 0 mm 1 mps 756 mmHg 17%
    14:00 +38°C° 0 mm 2 mps 755 mmHg 15%
    15:00 +38°C° 0 mm 2 mps 755 mmHg 15%
    16:00 +38°C° 0 mm 2 mps 754 mmHg 16%
    17:00 +38°C° 0 mm 2 mps 754 mmHg 16%
    18:00 +35°C° 0 mm 2 mps 754 mmHg 19%
    19:00 +31°C° 0 mm 1 mps 754 mmHg 23%
    20:00 +28°C° 0 mm 1 mps 754 mmHg 27%
    21:00 +27°C° 0 mm 1 mps 755 mmHg 28%
    22:00 +27°C° 0 mm 2 mps 755 mmHg 28%
    23:00 +26°C° 0 mm 2 mps 756 mmHg 29%

    1 Febrero, Sábado

    Tiempo Temperatura Precipitaciones Viento Presión Humedad
    00:00 +25°C° 0 mm 2 mps 755 mmHg 31%
    01:00 +24°C° 0 mm 2 mps 755 mmHg 33%
    02:00 +24°C° 0 mm 2 mps 755 mmHg 35%
    03:00 +23°C° 0 mm 2 mps 755 mmHg 35%
    04:00 +23°C° 0 mm 2 mps 755 mmHg 36%
    05:00 +23°C° 0 mm 2 mps 755 mmHg 36%
    06:00 +25°C° 0 mm 2 mps 755 mmHg 33%
    07:00 +27°C° 0 mm 3 mps 755 mmHg 29%
    08:00 +29°C° 0 mm 3 mps 755 mmHg 25%
    09:00 +33°C° 0 mm 3 mps 755 mmHg 23%
    10:00 +36°C° 0 mm 3 mps 754 mmHg 21%
    11:00 +39°C° 0 mm 3 mps 754 mmHg 18%
    12:00 +39°C° 0 mm 3 mps 753 mmHg 17%
    13:00 +40°C° 0 mm 3 mps 752 mmHg 15%
    14:00 +42°C° 0 mm 3 mps 751 mmHg 14%
    15:00 +42°C° 0 mm 3 mps 751 mmHg 14%
    16:00 +42°C° 0 mm 3 mps 750 mmHg 14%
    17:00 +42°C° 0 mm 3 mps 750 mmHg 14%
    18:00 +38°C° 0 mm 3 mps 750 mmHg 18%
    19:00 +35°C° 0 mm 3 mps 750 mmHg 22%
    20:00 +31°C° 0 mm 2 mps 750 mmHg 25%
    21:00 +30°C° 0 mm 2 mps 751 mmHg 28%
    22:00 +30°C° 0 mm 2 mps 751 mmHg 30%
    23:00 +29°C° 0 mm 2 mps 752 mmHg 33%
    Mostrar más